Location: Jetmore Motorplex
(37.9889°N, 99.8876°W)
Time: 09:39:46
(UTC+00:00)

Meteor PRIRODA - Pass Details

Date: 17 February 2020
Orbit: 490 x 512 km, 97.5° (Epoch: 04 April)

Event Time Altitude Azimuth Distance (km) Brightness Sun altitude
Rises 11:26:24 0° 15° (NNE) 2,614 7.5 -24.5°
Reaches altitude 10° 11:28:31 10° 18° (NNE) 1,721 6.6 -24.1°
Maximum altitude 11:32:12 64° 101° (E) 557 4.0 -23.4°
Enters shadow 11:33:00 48° 158° (SSE) 661 4.2 -23.2°
